Snowfall_Accumulation
0.0 0.0 0.0 0.0 0.1 0.0 0.0 0.0 0.0 0.0 0.0 0.0 0.0 0.0 0.0 0.0 0.0 0.0 0.0 0.0 0.0 0.0
0.1 0.2 0.2 0.1 0.1 0.0 0.0 0.0 0.0 0.0 0.0 0.0 0.0 0.0 0.0 0.0 0.0 0.0 0.0 0.0 0.0 0.0
0.4 0.3 0.4 0.2 0.2 0.1 0.0 0.0 0.0 0.0 0.0 0.0 0.0 0.0 0.0 0.0 0.0 0.0 0.0 0.0 0.0 0.0
1.5 0.6 0.6 0.8 1.1 0.6 0.7 0.1 0.0 0.0 0.0 0.0 0.0 0.0 0.0 0.0 0.0 0.0 0.0 0.0 0.0 0.0
6.6 8.5 4.6 5.6 4.3 5.0 4.8 2.3 1.7 1.4 0.9 0.7 0.0 0.0 0.0 0.0 0.0 0.0 0.0 0.0 0.0 0.0
5.5 8.1 13.5 12.2 11.0 9.0 7.9 7.2 7.0 5.7 4.5 3.8 2.7 2.0 1.5 0.0 0.0 0.0 0.0 0.0 0.0 0.0
7.0 1.2 4.4 10.7 8.7 6.7 6.5 8.6 10.8 14.0 13.4 11.1 7.0 7.2 4.4 2.5 3.3 0.0 0.0 0.0 0.0 0.0
1.7 1.9 0.5 0.9 2.4 2.0 1.8 3.7 9.3 10.3 9.8 7.9 6.4 5.4 2.1 1.4 2.7 2.9 1.5 0.5 0.2 0.1
0.2 0.3 0.6 0.3 0.4 0.1 0.0 0.0 0.5 0.5 0.6 3.2 2.3 1.3 0.4 0.3 0.4 0.3 0.1 0.0 0.0 0.0
0.1 0.1 0.0 0.1 0.0 0.1 0.2 0.0 0.0 0.0 0.0 0.0 0.2 0.1 0.2 0.0 0.0 0.0 0.0 0.0 0.0 0.0
0.0 0.0 0.0 0.0 0.0 0.0 0.0 0.0 0.0 0.0 0.0 0.0 0.0 0.0 0.0 0.0 0.0 0.0 0.0 0.0 0.0 0.0
0.0 0.0 0.0 0.0 0.0 0.0 0.0 0.0 0.0 0.0 0.0 0.0 0.0 0.0 0.0 0.0 0.0 0.0 0.0 0.0 0.0 0.0
0.0 0.0 0.0 0.0 0.0 0.0 0.0 0.0 0.0 0.0 0.0 0.0 0.0 0.0 0.0 0.0 0.0 0.0 0.0 0.0 0.0 0.0
0.0 0.0 0.0 0.0 0.0 0.0 0.0 0.0 0.0 0.0 0.0 0.0 0.0 0.0 0.0 0.0 0.0 0.0 0.0 0.0 0.0 0.0